Location: Bieujac
(44.5398°N, 0.1549°W)
Time: 05:55:33
(UTC+00:00)

MSX - Pass Details

Date: 17 November 2019
Orbit: 895 x 906 km, 98.8° (Epoch: 13 December)

Event Time Altitude Azimuth Distance (km) Brightness Sun altitude
Rises 04:39:06 0° 9° (N) 3,527 7.0 -24.8°
Reaches altitude 10° 04:41:33 10° 5° (N) 2,584 6.2 -24.4°
Maximum altitude 04:47:07 52° 291° (WNW) 1,107 3.9 -23.4°
Enters shadow 04:47:24 52° 280° (W) 1,113 3.9 -23.3°
